Hourly Data Report for April 27, 2006

TORONTO CITY
ONTARIO

43°40'00.000" N
79°24'00.000" W
112.50 m
6158355
71508
XTO

Download Data

Hourly Data (April 2006)
Hourly Data Report for April 27, 2006
TIME
LST
Temp Definition
°C
Dew Point Definition
°C
Rel Hum Definition
%
Precip. Amount Definition
mm

Wind Dir Definition
10's deg

Wind Spd Definition
km/h
Visibility Definition
km
Stn Press Definition
kPa
Hmdx Definition


Wind Chill Definition


Weather Definition


00:00 10.9 1.8 53   LegendMM LegendMM   99.53     LegendNANA
01:00 10.2 -0.1 49   LegendMM LegendMM   99.51     LegendNANA
02:00 9.7 -1.1 47   LegendMM LegendMM   99.53     LegendNANA
03:00 9.3 -3.9 39   LegendMM LegendMM   99.57     LegendNANA
04:00 8.4 -5.3 37   LegendMM LegendMM   99.60     LegendNANA
05:00 7.5 -5.0 41   LegendMM LegendMM   99.67     LegendNANA
06:00 7.0 -2.7 50   LegendMM LegendMM   99.77     LegendNANA
07:00 7.0 -1.4 55   LegendMM LegendMM   99.85     LegendNANA
08:00 7.7 0.4 60   LegendMM LegendMM   99.92     LegendNANA
09:00 8.7 -1.2 50   LegendMM LegendMM   99.98     LegendNANA
10:00 9.3 -2.6 43   LegendMM LegendMM   100.07     LegendNANA
11:00 9.3 -3.1 42   LegendMM LegendMM   100.13     LegendNANA
12:00 9.8 -2.1 43   LegendMM LegendMM   100.16     LegendNANA
13:00 9.9 -4.4 36   LegendMM LegendMM   100.18     LegendNANA
14:00 10.5 -1.2 44   LegendMM LegendMM   100.20     LegendNANA
15:00 10.7 -1.7 42   LegendMM LegendMM   100.20     LegendNANA
16:00 10.8 -0.9 44   LegendMM LegendMM   100.23     LegendNANA
17:00 11.4 -5.0 31   LegendMM LegendMM   100.28     LegendNANA
18:00 10.9 -14.9 15   LegendMM LegendMM   100.32     LegendNANA
19:00 9.8 -9.1 25   LegendMM LegendMM   100.37     LegendNANA
20:00 8.1 -5.7 37   LegendMM LegendMM   100.50     LegendNANA
21:00 6.6 -7.0 37   LegendMM LegendMM   100.60     LegendNANA
22:00 5.8 -8.0 36   LegendMM LegendMM   100.63     LegendNANA
23:00 5.5 -7.5 39   LegendMM LegendMM   100.69     LegendNANA

Notes on Data Quality.

Legend

  • E = Estimated
  • M = Missing
  • NA = Not Available*
  • [empty] = Indicates an unobserved value
Date modified: